North Myrtle Beach, SC

1:00 AM EST on December 14, 2019 (GMT -0500)
Grand Strand

Weather History for KCRE - October, 2019

Change the Weather History Date:

Wednesday, October 30, 2019

  Actual Average Record
Temperature  
Mean Temperature 73 °F 61 °F  
Max Temperature 80 °F 71 °F 85 °F (1950)
Min Temperature 66 °F 51 °F 25 °F (1952)
Degree Days  
Heating Degree Days 0 6  
Month to date heating degree days 12 81  
Since 1 July heating degree days 12 85  
Cooling Degree Days 8 2  
Month to date cooling degree days 186 98  
Year to date cooling degree days 2369 1882  
Growing Degree Days 22 (Base 50)    
Moisture  
Dew Point 68 °F    
Average Humidity 86    
Maximum Humidity 100    
Minimum Humidity 71    
Precipitation  
Precipitation 0.00 in 0.10 in 1.53 in (1970)
Month to date precipitation 4.08 3.77  
Year to date precipitation 46.65 45.40  
Sea Level Pressure  
Sea Level Pressure 30.13 in    
Wind  
Wind Speed 7 mph (ENE)    
Max Wind Speed 14 mph    
Max Gust Speed 20 mph    
Visibility 9 miles    
Events      
T = Trace of Precipitation, MM = Missing Value Source: NWS Daily Summary

Daily Weather History Graph

Daily Weather History Graph

Search for Another Location

Airport or City:

Astronomy

Oct. 30, 2019 Rise Set
Actual Time 7:32 AM EDT 6:24 PM EDT
Civil Twilight 7:06 AM EDT 6:50 PM EDT
Nautical Twilight 6:37 AM EDT 7:19 PM EDT
Astronomical Twilight 6:07 AM EDT 7:48 PM EDT
Moon 10:07 AM EDT (10/30) 8:37 PM EDT (10/30)
Length of Visible Light 11h 43m
Length of Day
10h 52m
Waxing Crescent, 8% of the Moon is Illuminated
Oct 30
Waxing Crescent
Nov 4
First Quarter
Nov 12
Full
Nov 19
Last Quarter
Nov 26
New

Hourly Weather History & Observations

Time (EDT) Temp. Dew Point Humidity Pressure Visibility Wind Dir Wind Speed Gust Speed Precip Events Conditions
12:26 AM 66.9 °F 64.9 °F 93% 30.18 in 8.0 mi North 4.6 mph - N/A   Mostly Cloudy
12:53 AM 66.0 °F 64.9 °F 96% 30.17 in 8.0 mi NNE 5.8 mph - N/A   Mostly Cloudy
1:02 AM 66.0 °F 64.9 °F 96% 30.17 in 8.0 mi North 5.8 mph - N/A   Scattered Clouds
1:53 AM 66.0 °F 64.9 °F 96% 30.15 in 7.0 mi NNE 5.8 mph - N/A   Clear
2:16 AM 66.0 °F 64.9 °F 96% 30.14 in 7.0 mi NNE 4.6 mph - N/A   Mostly Cloudy
2:50 AM 66.2 °F 64.4 °F 94% 30.14 in 7.0 mi NNE 4.6 mph - N/A   Scattered Clouds
2:53 AM 66.0 °F 64.9 °F 96% 30.14 in 7.0 mi NNE 4.6 mph - N/A   Scattered Clouds
3:11 AM 66.0 °F 64.9 °F 96% 30.14 in 6.0 mi NNE 5.8 mph - N/A   Mostly Cloudy
3:49 AM 66.2 °F 66.2 °F 100% 30.13 in 6.0 mi NE 5.8 mph - N/A   Overcast
3:53 AM 66.9 °F 66.0 °F 97% 30.14 in 6.0 mi NE 5.8 mph - N/A   Overcast
4:53 AM 68.0 °F 66.9 °F 96% 30.14 in 6.0 mi NE 5.8 mph - N/A   Overcast
5:05 AM 68.0 °F 66.9 °F 96% 30.13 in 6.0 mi NE 5.8 mph - N/A   Mostly Cloudy
5:12 AM 68.0 °F 66.9 °F 96% 30.13 in 6.0 mi NE 5.8 mph - N/A   Mostly Cloudy
5:53 AM 70.0 °F 68.0 °F 93% 30.14 in 10.0 mi NNE 5.8 mph - N/A   Mostly Cloudy
6:53 AM 70.0 °F 68.0 °F 93% 30.15 in 10.0 mi NE 6.9 mph - N/A   Scattered Clouds
7:53 AM 71.1 °F 69.1 °F 93% 30.17 in 10.0 mi NE 5.8 mph - N/A   Overcast
8:53 AM 72.0 °F 70.0 °F 93% 30.18 in 10.0 mi ENE 5.8 mph - N/A   Mostly Cloudy
9:53 AM 75.9 °F 69.1 °F 79% 30.19 in 10.0 mi East 9.2 mph - N/A   Mostly Cloudy
10:53 AM 78.1 °F 68.0 °F 71% 30.18 in 10.0 mi East 9.2 mph - N/A   Overcast
11:53 AM 78.1 °F 69.1 °F 74% 30.18 in 10.0 mi ESE 10.4 mph - N/A   Scattered Clouds
12:53 PM 78.1 °F 68.0 °F 71% 30.16 in 10.0 mi East 11.5 mph - N/A   Mostly Cloudy
1:53 PM 78.1 °F 68.0 °F 71% 30.13 in 10.0 mi East 11.5 mph - N/A   Overcast
2:53 PM 78.1 °F 69.1 °F 74% 30.12 in 10.0 mi East 9.2 mph - N/A   Overcast
3:53 PM 78.1 °F 69.1 °F 74% 30.11 in 10.0 mi East 9.2 mph - N/A   Mostly Cloudy
4:23 PM 77.0 °F 69.1 °F 76% 30.10 in 10.0 mi East 10.4 mph - N/A   Overcast
4:50 PM 77.0 °F 69.8 °F 78% 30.10 in 10.0 mi East 10.4 mph - N/A   Overcast
4:53 PM 77.0 °F 70.0 °F 79% 30.10 in 10.0 mi East 9.2 mph - N/A   Overcast
5:06 PM 75.9 °F 70.0 °F 82% 30.10 in 10.0 mi East 9.2 mph - N/A   Overcast
5:19 PM 75.9 °F 70.0 °F 82% 30.10 in 10.0 mi East 8.1 mph - N/A   Overcast
5:26 PM 75.9 °F 70.0 °F 82% 30.10 in 10.0 mi East 6.9 mph - N/A   Overcast
5:53 PM 75.0 °F 70.0 °F 84% 30.10 in 10.0 mi East 8.1 mph - N/A   Overcast
6:16 PM 75.0 °F 70.0 °F 84% 30.09 in 10.0 mi ESE 9.2 mph - N/A   Overcast
6:53 PM 75.0 °F 71.1 °F 87% 30.10 in 10.0 mi ESE 6.9 mph - N/A   Overcast
7:53 PM 75.0 °F 71.1 °F 87% 30.10 in 10.0 mi SE 4.6 mph - N/A   Partly Cloudy
8:53 PM 75.0 °F 71.1 °F 87% 30.10 in 10.0 mi ESE 3.5 mph - N/A   Clear
9:53 PM 75.0 °F 71.1 °F 87% 30.09 in 10.0 mi SSE 5.8 mph - N/A   Clear
10:53 PM 75.0 °F 71.1 °F 87% 30.09 in 10.0 mi SE 4.6 mph - N/A   Clear
11:53 PM 75.9 °F 71.1 °F 85% 30.09 in 10.0 mi South 4.6 mph - N/A   Clear